sat.trackr.live / text

‹ back to catalog

STARLINK-5956

NORAD 55994 · 2023-042J

PAYLOAD ACTIVE UNKNOWN

§ Identity

Operator
Country
US
Launch date
2023-03-24
Launch site
AFETR
Launch vehicle
Mass (kg)
RCS (m²)

Purposes: comms

External: N2YO · Heavens-Above · Gunter

§ Orbital elements

Epoch: 2026-05-24T23:05:11.753376Z

Period
94.27 min
Inclination
43.0061°
Eccentricity
0.0001758
Mean motion
15.27574730 rev/d
Perigee alt
481.9 km
Apogee alt
484.3 km
Semi-major
6,861.2 km
B*
4.9053e-6
RAAN
348.9214°
Arg perigee
268.3538°
Mean anomaly
91.7112°
Rev number
17,453

§ Raw data

STARLINK-59561 55994U 23042J   26144.96194159 -.00000127  00000+0  49053-5 0  99902 55994  43.0061 348.9214 0001758 268.3538  91.7112 15.27574730174537

JSON: /api/v1/satellites/55994 · /tle

For live sub-satellite position, see the globe view (requires WebGL).

§ Visibility from observer

Set your observer location to see the next 7 days of passes ≥ 10°. The values pass through the URL so the page stays shareable.

No JS? Fill the form by hand. The geolocation button needs JavaScript.